Regional Weather Roundup
Issued by NWS

Home | Current Version | Previous Version | Text Only | Print | Product List | Glossary On
Versions: 1 2 3 4 5 6 7 8 9 10 11 12 13 14 15 16 17 18 19 20 21 22 23 24 25 26 27 28 29 30 31 32 33 34 35 36 37 38 39 40 41 42 43 44 45 46 47 48 49 50
000
ASUS44 KBMX 201010
RWRAL

ALABAMA REGIONAL WEATHER ROUNDUP
NATIONAL WEATHER SERVICE BIRMINGHAM AL
400 AM CST WED NOV 20 2019

NOTE: "FAIR" INDICATES FEW OR NO CLOUDS BELOW 12,000 FEET
WITH NO SIGNIFICANT WEATHER AND/OR OBSTRUCTIONS TO VISIBILITY.

THE REMARK "TC" DENOTES TEMPERATURE IN DEGREES CELSIUS.

ALZ001>011-014-016>018-020-201100-
NORTH ALABAMA

CITY           SKY/WX    TMP DP  RH WIND       PRES   REMARKS
MUSCLE SHOALS  FAIR      35  33  92 CALM      30.13R
HUNTSVILLE     FAIR      34  30  85 CALM      30.13R
DECATUR        FAIR      33  31  92 CALM      30.14R
HALEYVILLE     FAIR      33  32  96 CALM      30.14R
GADSDEN        FAIR      31  30  96 CALM      30.13R
$$

ALZ012-013-022-023-030>036-040>044-201100-
WEST CENTRAL ALABAMA

CITY           SKY/WX    TMP DP  RH WIND       PRES   REMARKS
TUSCALOOSA     FAIR      38  36  92 CALM      30.13R
DEMOPOLIS      FAIR      35  35  99 CALM      30.12S
$$

ALZ015-024>026-033>036-041>044-201100-
CENTRAL ALABAMA

CITY           SKY/WX    TMP DP  RH WIND       PRES   REMARKS
BIRMINGHAM     FAIR      38  35  89 CALM      30.14R
MONTGOMERY     FAIR      40  36  86 CALM      30.12R
SHELBY CO ARPT FAIR      37  35  92 CALM      30.11R
MAXWELL AFB    FAIR      38  37  95 CALM      30.11R
GREENVILLE     FAIR      38  33  82 N3        30.10R
SELMA            N/A     36  34  93 CALM      30.12R
PRATTVILLE     FAIR      37  37 100 CALM      30.11R
BESSEMER       FAIR      39  37  92 CALM      30.12R
TALLADEGA      FAIR      33  33  98 CALM      30.12R FOG
PELL CITY        N/A     34  34 100 CALM      30.12S
MARION         FAIR      35  35 100 CALM      30.12R
SYLACAUGA      FAIR      34  34  99 CALM      30.12R
$$

ALZ019-021-028-029-037-038-045>048-201100-
EAST CENTRAL ALABAMA

CITY           SKY/WX    TMP DP  RH WIND       PRES   REMARKS
ANNISTON       FAIR      35  33  92 CALM      30.12R
ALEXANDER CITY FAIR      34  33  96 CALM      30.10R
AUBURN         FAIR      42  40  92 N5        30.10R
$$

ALZ051>064-201100-
SOUTHWEST ALABAMA

CITY           SKY/WX    TMP DP  RH WIND       PRES   REMARKS
MOBILE         FAIR      45  42  89 CALM      30.12R
BROOKLEY FIELD FAIR      47  44  90 NW3       30.13R
EVERGREEN      FAIR      39  34  82 CALM      30.11R
$$

ALZ049-050-065>069-201100-
SOUTHEAST ALABAMA

CITY           SKY/WX    TMP DP  RH WIND       PRES   REMARKS
DOTHAN         FAIR      45  42  89 N5        30.12R
OZARK          FAIR      46  41  82 N5        30.10R
TROY           FAIR      36  36 100 CALM      30.12R
EUFAULA        NOT AVBL
$$



USA.gov is the U.S. government's official web portal to all federal, state and local government web resources and services.